Content
SEND FEEDBACK

Daily
Averages
Monthly
Summary
United States of America

GASTON SHOALS, SOUTH CAROLINA


Home > North America > United States > South Carolina
Elevation: 60 feet     Latitude: 35 08N     Longitude: 081 36W

WEATHER
 
SELECT A DAY
Number of Records: 245,292;   Date Range: 12/19/03 - 8/12/14
 
SHARE

PRINT THIS DATA

[ ← Previous Day ]
WEATHER ALMANAC - FEBRUARY 13, 2013
[ Next Day → ]
[ °C ]   °F
Weather ElementAverageHighLow
Temperature44.2 °F49.1 °F (7:35 pm)39.9 °F (11:55 pm)
Dewpoint40.8 °F45.3 °F (2:55 pm)30.2 °F (11:35 pm)
Humidity88.4 %99 % (8:55 am)65 % (7:55 pm)
Barometer29.78 in29.89 in (12:35 am)29.67 in (1:55 pm)
Wind Speed4.7 mph12.7 mph (7:35 pm)
Wind Gust19.6 mph (7:35 pm)
Weather ElementAverage
Visibility7.7 mi
Wind DirectionSE (131.9 °)

Weather ElementTotal
Precipitation0.11 in
Heating Degree Days20.5 (Base 65)
Averaged from 70 records on February 13, 2013
WEATHER CONDITIONS BREAKOUT
WIND DIRECTION BREAKOUT
WEATHER BY HOUR - FEBRUARY 13, 2013
[ °C ]   °F
Local TimeTemperatureDewpointHumidityBarometerVisibilityWind DirectionWind SpeedGust SpeedPrecipitationEventsConditions
12:35 AM43.9 °F42.8 °F96 %29.89 in10.0 miCalmMostly Cloudy
12:55 AM44.4 °F42.6 °F93 %29.89 in10.0 miCalmOvercast
1:15 AM45.1 °F41.2 °F86 %29.89 in10.0 miNorth (350°)4.6 mphOvercast
1:35 AM45.1 °F40.6 °F84 %29.89 in10.0 miCalmOvercast
1:55 AM45.1 °F40.1 °F82 %29.89 in10.0 miCalmRainRain
2:15 AM44.2 °F40.5 °F87 %29.86 in10.0 miNorth (10°)6.9 mph0.02 inRainLight Rain
2:35 AM44.1 °F40.3 °F87 %29.87 in10.0 miNorth (10°)6.9 mph0.02 inOvercast
2:55 AM43.5 °F40.5 °F89 %29.84 in10.0 miNNE (30°)5.8 mph0.02 inOvercast
3:15 AM43.2 °F40.8 °F91 %29.85 in10.0 miNorth (350°)4.6 mphOvercast
3:35 AM43.3 °F40.8 °F91 %29.86 in10.0 miNNE (20°)3.5 mphOvercast
3:55 AM43.0 °F41.0 °F93 %29.84 in10.0 miNE (40°)4.6 mphOvercast
4:15 AM42.8 °F41.0 °F93 %29.84 in10.0 miNNE (30°)4.6 mphOvercast
4:35 AM42.8 °F41.2 °F94 %29.82 in10.0 miNNE (20°)3.5 mphOvercast
4:55 AM42.8 °F41.0 °F93 %29.83 in10.0 miCalmOvercast
5:15 AM42.8 °F41.0 °F93 %29.82 in10.0 miNE (40°)3.5 mphOvercast
5:35 AM42.6 °F41.0 °F94 %29.81 in10.0 miNNE (30°)3.5 mphOvercast
5:55 AM42.6 °F41.2 °F95 %29.81 in10.0 miNorth (360°)3.5 mphOvercast
6:15 AM42.4 °F41.0 °F95 %29.82 in10.0 miNorth (10°)3.5 mphOvercast
6:35 AM42.4 °F41.0 °F95 %29.80 in10.0 miNE (50°)4.6 mphOvercast
6:55 AM42.4 °F41.4 °F96 %29.79 in10.0 miNNE (30°)4.6 mphOvercast
7:15 AM42.4 °F41.4 °F96 %29.80 in10.0 miENE (60°)3.5 mphOvercast
7:35 AM42.4 °F41.0 °F95 %29.79 in7.0 miNE (50°)4.6 mphOvercast
7:55 AM42.4 °F41.2 °F95 %29.82 in2.5 miCalmOvercast
8:15 AM42.4 °F41.4 °F96 %29.79 in1.5 miNNE (30°)4.6 mphOvercast
8:35 AM42.3 °F41.5 °F97 %29.80 in1.5 miNNE (20°)5.8 mphOvercast
8:55 AM42.3 °F41.9 °F99 %29.79 in1.2 miNNE (20°)5.8 mphOvercast
9:15 AM42.4 °F41.9 °F98 %29.80 in1.2 miCalmOvercast
9:35 AM42.8 °F42.3 °F98 %29.79 in1.0 miCalmDrizzle
9:55 AM42.8 °F42.4 °F99 %29.78 in1.5 miNE (50°)3.5 mph0.01 inOvercast
10:15 AM43.0 °F42.4 °F98 %29.77 in3.0 miNE (40°)3.5 mphOvercast
10:35 AM43.2 °F42.8 °F99 %29.77 in4.0 miCalmOvercast
10:55 AM43.3 °F42.6 °F97 %29.75 in2.5 miNNE (20°)3.5 mphOvercast
11:15 AM43.3 °F42.6 °F97 %29.76 in1.8 miCalmOvercast
11:35 AM43.7 °F42.8 °F97 %29.74 in1.2 miCalmOvercast
11:55 AM43.7 °F43.0 °F97 %29.75 in1.5 miCalmOvercast
12:15 PM43.7 °F43.0 °F97 %29.73 in1.2 miCalmOvercast
12:35 PM43.7 °F43.0 °F97 %29.71 in1.2 miCalm0.02 inLight Drizzle
12:55 PM44.1 °F43.5 °F98 %29.70 in1.8 miWNW (300°)3.5 mph0.02 inOvercast
1:15 PM44.2 °F43.7 °F98 %29.68 in2.5 miCalmOvercast
1:55 PM45.1 °F44.6 °F98 %29.67 in2.0 miSouth (190°)4.6 mphOvercast
2:15 PM45.1 °F44.6 °F98 %29.68 in2.5 miSouth (180°)3.5 mphOvercast
2:35 PM45.1 °F44.6 °F98 %29.67 in4.0 miSSW (210°)5.8 mphOvercast
2:55 PM46.0 °F45.3 °F97 %29.68 in10.0 miSW (220°)8.1 mphOvercast
3:15 PM46.0 °F44.6 °F95 %29.68 in10.0 miSSW (210°)8.1 mphOvercast
3:35 PM46.4 °F44.6 °F93 %29.67 in10.0 miSW (230°)9.2 mphOvercast
3:55 PM46.8 °F44.6 °F92 %29.68 in10.0 miSW (220°)8.1 mphOvercast
4:15 PM47.5 °F45.0 °F91 %29.68 in10.0 miSSW (210°)8.1 mphOvercast
4:35 PM47.7 °F44.8 °F90 %29.68 in10.0 miSW (220°)10.4 mphOvercast
4:55 PM48.2 °F44.2 °F86 %29.68 in10.0 miSW (220°)10.4 mph18.4 mphOvercast
5:15 PM48.6 °F44.2 °F85 %29.69 in10.0 miWSW (240°)6.9 mphOvercast
5:35 PM48.6 °F43.9 °F84 %29.70 in10.0 miSW (230°)8.1 mphOvercast
5:55 PM48.6 °F44.1 °F84 %29.71 in10.0 miSSW (210°)8.1 mphOvercast
6:15 PM48.6 °F44.4 °F86 %29.72 in10.0 miSSW (210°)9.2 mphOvercast
6:35 PM48.6 °F44.1 °F84 %29.73 in10.0 miSSW (210°)8.1 mphOvercast
6:55 PM48.2 °F44.6 °F87 %29.74 in10.0 miSW (220°)5.8 mphOvercast
7:15 PM47.7 °F44.2 °F88 %29.76 in10.0 miWSW (240°)4.6 mphOvercast
7:35 PM49.1 °F40.5 °F72 %29.77 in10.0 miWest (280°)12.7 mph19.6 mphMostly Cloudy
7:55 PM47.7 °F36.5 °F65 %29.79 in10.0 miWest (280°)10.4 mph19.6 mphScattered Clouds
8:15 PM46.0 °F35.4 °F66 %29.79 in10.0 miWNW (300°)11.5 mphClear
8:35 PM44.6 °F35.1 °F69 %29.80 in10.0 miWNW (300°)9.2 mphScattered Clouds
8:55 PM43.2 °F34.9 °F73 %29.81 in10.0 miNW (310°)5.8 mphClear
9:15 PM43.2 °F35.1 °F73 %29.82 in10.0 miNW (320°)6.9 mphClear
9:35 PM41.4 °F34.3 °F76 %29.83 in10.0 miNW (310°)5.8 mphClear
9:55 PM41.9 °F33.3 °F71 %29.84 in10.0 miNW (310°)8.1 mphClear
10:15 PM41.5 °F32.2 °F69 %29.84 in10.0 miWNW (290°)4.6 mphClear
10:35 PM41.2 °F32.0 °F70 %29.85 in10.0 miWNW (300°)6.9 mphClear
10:55 PM40.3 °F31.8 °F72 %29.85 in10.0 miWest (280°)5.8 mphClear
11:15 PM41.0 °F31.1 °F68 %29.86 in10.0 miNW (310°)10.4 mphClear
11:35 PM40.6 °F30.2 °F66 %29.87 in10.0 miCalmClear
11:55 PM39.9 °F30.7 °F70 %29.87 in10.0 miCalmClear
Hourly data recorded from KEHO, located miles away from Gaston Shoals, South Carolina







STORIES FROM OUR PARTNERS